Flag for Argentina Weather past 2 weeks in Buenos Aires, Argentina

Now
61 °F

Sunny.


Feels Like: 61 °F
Forecast: 60 / 67 °F
Wind: 8 mph from East

Location: Buenos Aires Airport


UV Index: 3 (Moderate)

Visibility: 10 mi


Pressure: 30.15 "Hg

Humidity: 68%

Dew point: 50 °F

Location of Buenos AiresLocation

Historic Weather in Buenos Aires

°F

Buenos Aires temperature yesterday

Maximum temperature yesterday: 70 °F (at 12:00 PM)
Minimum temperature yesterday: 54 °F (at 3:00 AM)
Average temperature yesterday: 62 °F

Past Weeks' High & Low Weather Summary

 TemperatureHumidityPressure
High77 °F (Apr 17, 2:00 PM)100% (Apr 7, 3:00 AM)30.21 "Hg (Apr 7, 3:00 AM)
Low50 °F (Apr 12, 5:00 PM)31% (Apr 8, 5:00 PM)29.53 "Hg (Apr 8, 3:00 AM)
Average65 °F69%29.95 "Hg
* Reported Apr 5 7:00 AM — Apr 20 7:00 AM, Buenos Aires, Weather by CustomWeather, © 2014

Note: Actual official high and low records may vary slightly from our data, if they occured in-between our weather recording intervals... More about our weather records

Advertising

Historic Weather Conditions — Data for Previous 24 hours

 ConditionsComfort  
Time TempWeatherWind HumidityBarometerVisibility
7:00 AM
Apr 20
61 °FSunny.8 mph68%30.15 "Hg10 mi
6:00 AM61 °FClear.8 mph68%30.12 "Hg10 mi
5:00 AM63 °FPassing clouds.7 mph73%30.15 "HgN/A
4:00 AM61 °FClear.6 mph83%30.15 "Hg10 mi
3:00 AM63 °FPassing clouds.6 mph73%30.15 "HgN/A
2:00 AM63 °FClear.8 mph68%30.18 "Hg10 mi
1:00 AM61 °FClear.8 mph77%30.15 "Hg10 mi
12:00 AM63 °FClear.8 mph64%30.15 "Hg10 mi
11:00 PM
Apr 19
63 °FClear.10 mph68%30.15 "Hg10 mi
10:00 PM63 °FClear.14 mph73%30.15 "Hg10 mi
9:00 PM64 °FPassing clouds.14 mph64%30.15 "HgN/A
8:00 PM64 °FPassing clouds.8 mph60%30.15 "HgN/A
7:00 PM63 °FClear.7 mph64%30.12 "Hg10 mi
6:00 PM66 °FClear.5 mph60%30.09 "Hg10 mi
5:00 PM68 °FClear.5 mph53%30.09 "Hg6 mi
4:00 PM68 °FHaze.5 mph53%30.09 "Hg3 mi
3:00 PM70 °FFog.5 mph50%30.09 "Hg3 mi
2:00 PM68 °FFog.6 mph53%30.09 "Hg3 mi
1:00 PM70 °FClear.6 mph43%30.09 "Hg5 mi
12:00 PM70 °FPassing clouds.6 mph33%30.12 "HgN/A
11:00 AM68 °FPassing clouds.6 mph38%30.12 "HgN/A
10:00 AM63 °FPassing clouds.5 mph64%30.12 "HgN/A
9:00 AM61 °FClear.6 mph68%30.12 "Hg6 mi
8:00 AM54 °FClear.3 mph94%30.09 "Hg4 mi
Weather by CustomWeather, © 2014

See weather overview